CAPE
189 1 143 255 463 677 713 750 680 573 550 597 736 794 840 1025 917 854 1009 1167 1211 1170 864 528 347 288 227 136 61 69 0 0
889 85 0 103 280 311 443 517 499 382 361 394 448 479 541 715 693 675 797 970 1078 1072 852 471 248 165 116 59 20 24 0 0
958 675 1 0 0 98 177 201 219 186 213 252 273 321 277 320 381 207 531 649 765 878 788 566 319 195 151 109 84 23 0 0
364 794 258 0 0 0 46 124 164 136 136 137 187 178 50 94 102 94 261 338 431 526 609 577 449 337 234 170 99 31 0 0
299 697 488 184 28 0 35 1 0 29 81 62 157 76 61 37 37 65 37 163 119 180 255 340 310 256 112 17 50 7 6 0
266 704 1002 412 258 58 88 97 7 1 81 163 126 169 106 83 52 171 41 40 58 27 9 28 55 32 20 2 54 32 84 17
594 338 966 1116 712 411 212 477 198 124 150 151 185 197 153 196 110 77 194 141 118 53 13 3 8 4 1 6 8 69 117 57
603 789 984 1209 1285 962 982 463 601 404 382 422 403 219 573 282 370 265 172 276 201 101 4 1 75 43 54 60 60 47 35 17
228 819 1761 1552 1543 1610 1378 1675 890 896 585 595 897 834 433 873 565 492 410 236 193 95 102 84 34 122 136 187 79 52 63 100
281 822 842 2240 1932 2067 2065 1663 1507 1432 1035 861 1208 1156 1090 753 1049 736 545 363 252 259 179 202 161 156 134 127 89 149 153 154
525 708 967 1175 1509 2440 2312 2227 2204 1675 1592 1222 1310 1453 1436 1352 947 973 792 535 334 256 204 229 201 262 172 149 204 231 291 316
446 737 945 974 1072 1256 2085 2101 2181 2090 2065 1721 1517 1553 1451 1578 1286 1060 1010 719 457 391 249 270 285 290 250 196 338 434 517 474
100 609 776 757 876 1187 1278 1516 1771 1811 2016 1951 1842 1746 1705 1578 1512 1319 1070 884 599 448 447 444 379 338 412 466 748 956 1414 1584
0 115 536 551 638 827 1394 1635 1240 1151 1739 1846 1920 1874 1740 1760 1583 1459 1288 902 803 589 525 401 408 454 299 483 544 1027 1302 1398
0 0 286 482 355 263 474 1005 1661 1625 769 1965 1841 1880 1902 1724 1695 1576 1350 1173 924 699 748 450 277 242 403 306 588 36 738 1324
0 0 65 238 54 44 221 716 1099 1740 2006 1472 1848 1949 1815 1796 1653 1549 1503 1198 1082 855 775 658 388 275 405 434 280 849 738 721
0 0 0 62 2 0 77 281 498 1041 1396 1457 1689 2012 1891 1744 1697 1527 1474 1378 1105 1031 838 681 517 235 262 474 778 1018 1446 1061
0 0 0 2 0 0 32 44 192 545 1130 1510 1642 1660 1937 2048 1715 1495 1529 1375 1195 1150 1049 703 484 351 237 955 1151 1145 1038 936
0 0 0 2 0 0 1 7 144 487 769 953 1217 1398 1248 1448 1756 1668 1544 1337 1269 1008 1269 1176 694 482 615 484 530 569 521 439
0 0 0 22 0 0 13 12 153 307 517 465 796 902 853 965 1128 1206 1188 1131 1055 948 994 900 702 613 644 458 383 133 12 13
CIN
-516 -150 -547 -479 -403 -320 -288 -259 -256 -259 -256 -234 -200 -171 -152 -109 -120 -119 -91 -63 -53 -55 -97 -164 -231 -259 -311 -413 -524 -529 -1 -0
-365 -410 -0 -537 -431 -405 -363 -315 -281 -288 -282 -266 -248 -230 -205 -175 -163 -159 -126 -97 -80 -76 -100 -175 -291 -368 -442 -504 -576 -558 -1 -0
-277 -348 -56 -0 -0 -473 -409 -387 -371 -348 -336 -307 -280 -261 -266 -250 -245 -320 -213 -169 -126 -96 -104 -138 -240 -341 -389 -464 -511 -609 -0 -0
-246 -287 -317 -0 -0 -0 -519 -407 -367 -375 -371 -362 -336 -327 -372 -320 -348 -391 -277 -242 -200 -168 -136 -133 -151 -209 -307 -384 -467 -593 -0 -0
-159 -339 -441 -286 -471 -0 -508 -74 -0 -207 -410 -415 -357 -373 -375 -360 -365 -387 -469 -327 -365 -316 -255 -203 -213 -261 -408 -546 -509 -618 -343 -0
-138 -192 -299 -477 -260 -386 -411 -467 -472 -61 -454 -385 -379 -357 -352 -352 -342 -260 -426 -418 -412 -443 -469 -494 -466 -488 -506 -487 -394 -436 -258 -339
-86 -116 -252 -282 -363 -340 -355 -345 -446 -446 -423 -439 -382 -348 -372 -313 -302 -280 -267 -298 -327 -381 -448 -158 -493 -511 -301 -442 -436 -280 -194 -253
-51 -83 -227 -228 -262 -305 -229 -274 -277 -386 -377 -373 -394 -403 -236 -301 -247 -229 -225 -187 -229 -305 -271 -53 -288 -317 -305 -284 -248 -210 -217 -240
-187 -106 -161 -184 -211 -208 -191 -100 -116 -149 -257 -328 -307 -325 -369 -192 -215 -214 -211 -219 -183 -184 -242 -225 -233 -173 -178 -153 -203 -205 -201 -191
-180 -147 -189 -107 -170 -129 -87 -115 -67 -66 -92 -155 -170 -258 -261 -279 -175 -204 -208 -206 -200 -151 -157 -141 -149 -136 -151 -162 -172 -158 -181 -208
-203 -218 -175 -142 -50 -44 -79 -73 -49 -56 -52 -85 -118 -115 -187 -171 -218 -182 -184 -195 -213 -218 -208 -157 -136 -126 -149 -150 -135 -114 -101 -108
-150 -147 -173 -206 -145 -119 -29 -42 -38 -35 -20 -58 -69 -65 -103 -151 -173 -193 -164 -175 -208 -218 -260 -215 -181 -160 -141 -136 -113 -114 -114 -81
-197 -79 -145 -185 -177 -112 -72 -21 -21 -51 -60 -64 -44 -33 -48 -74 -146 -164 -195 -183 -230 -247 -227 -221 -186 -168 -96 -89 -61 -61 -44 -13
-0 -128 -91 -142 -147 -135 -40 -29 -72 -42 -23 -49 -40 -39 -47 -50 -97 -137 -142 -191 -186 -209 -199 -194 -170 -208 -197 -98 -29 -77 -92 -38
-0 -0 -88 -95 -204 -270 -191 -77 -39 -66 -173 -10 -28 -33 -35 -56 -78 -106 -128 -119 -177 -197 -164 -208 -195 -171 -130 -171 -39 -192 -76 -47
-0 -0 -63 -116 -260 -316 -236 -105 -61 -30 -13 -43 -4 -4 -49 -53 -77 -103 -92 -119 -111 -152 -155 -164 -163 -148 -87 -88 -140 -69 -39 -52
-0 -0 -0 -180 -0 -0 -141 -62 -81 -61 -35 -46 -51 -7 -3 -44 -51 -74 -89 -65 -68 -88 -122 -112 -143 -60 -34 -126 -56 -33 -17 -33
-0 -0 -0 -6 -0 -0 -182 -102 -68 -146 -70 -28 -10 -5 -19 -26 -17 -27 -35 -27 -35 -48 -48 -99 -120 -117 -69 -22 -5 -2 -2 -0
-0 -0 -0 -6 -0 -0 -54 -127 -163 -70 -50 -48 -34 -0 -7 -15 -3 -0 -0 -2 -11 -46 -11 -8 -91 -100 -42 -34 -12 -0 -0 -0
-0 -0 -0 -29 -0 -0 -153 -208 -114 -49 -27 -72 -26 -3 -11 -3 -0 -0 -0 -0 -4 -6 -0 -3 -28 -27 -19 -25 -1 -37 -28 -15
Wind_Speed
28 nan 24 22 22 23 24 23 23 22 21 21 22 22 20 17 17 15 13 11 9 9 10 10 9 8 7 6 nan nan nan nan
27 nan nan 23 22 23 25 26 26 25 24 23 23 22 21 21 19 17 16 15 13 12 13 12 11 11 10 nan nan nan nan nan
29 27 nan nan nan nan 25 25 28 30 27 25 26 24 23 20 19 19 20 19 18 16 16 15 13 12 12 12 nan nan nan nan
31 30 29 nan nan nan nan 27 25 26 30 30 28 26 nan nan 24 nan 24 24 24 22 21 20 19 19 20 18 nan nan nan nan
32 35 36 34 nan nan nan nan nan nan nan nan 34 nan nan nan nan nan nan 29 30 29 28 27 25 26 24 nan nan nan nan nan
48 40 36 37 36 nan nan nan nan nan nan 29 31 36 35 nan nan 35 nan nan nan nan nan nan nan nan nan nan nan nan nan nan
48 52 38 35 37 37 36 36 34 34 32 30 30 30 33 36 37 nan 39 40 38 nan nan nan nan nan nan nan nan nan 35 nan
28 48 52 39 35 34 37 35 36 35 36 35 33 33 32 31 33 34 36 39 40 42 nan nan nan nan nan nan nan nan nan nan
44 43 57 46 37 33 32 35 34 35 33 33 38 34 34 35 31 30 31 34 36 nan 34 nan nan 37 38 41 nan nan nan 30
41 47 53 43 44 40 36 32 32 32 32 37 34 34 32 34 36 30 30 35 36 36 35 33 31 34 34 35 nan 34 31 29
44 46 50 47 44 39 40 35 33 32 33 32 36 36 34 33 33 34 34 34 35 36 36 37 35 35 34 32 37 36 33 32
44 44 48 48 47 46 42 42 37 35 34 33 31 37 34 34 34 35 38 39 34 36 35 41 38 42 40 40 46 39 38 33
39 49 51 53 51 51 51 47 41 40 39 33 34 36 37 35 32 33 41 40 35 41 46 41 43 48 41 46 32 33 38 36
nan 39 51 56 58 56 54 52 50 48 41 40 41 39 38 39 35 34 37 40 44 42 46 45 48 42 48 50 37 31 33 44
nan nan 42 50 63 61 61 59 56 54 50 52 49 46 43 40 40 38 39 43 44 46 48 48 46 47 45 45 46 nan 45 43
nan nan nan 48 nan nan 60 63 63 63 59 55 53 52 48 46 43 45 43 45 47 46 46 49 53 46 44 37 41 49 55 45
nan nan nan nan nan nan nan 54 57 64 64 62 59 62 53 47 46 49 48 48 46 46 47 48 54 54 45 45 43 44 53 56
nan nan nan nan nan nan nan nan 53 56 61 69 69 67 64 59 53 51 51 48 44 47 45 49 52 52 52 50 52 55 52 59
nan nan nan nan nan nan nan nan 50 55 56 58 60 67 74 70 68 60 60 55 47 46 48 47 47 54 61 59 64 65 60 73
nan nan nan nan nan nan nan nan 43 50 53 54 58 56 60 73 71 66 64 68 64 65 63 62 65 65 71 66 67 67 nan nan
Wind_Direction
308 nan 316 310 306 302 295 292 293 289 285 281 283 288 290 283 284 283 281 280 279 287 299 308 315 318 321 326 nan nan nan nan
306 nan nan 308 303 304 302 292 284 284 284 281 277 277 283 283 281 278 279 284 283 285 292 297 304 314 319 nan nan nan nan nan
306 304 nan nan nan nan 297 298 292 284 282 282 275 269 272 272 274 279 290 285 281 278 282 286 290 293 298 301 nan nan nan nan
311 303 304 nan nan nan nan 292 283 282 275 275 272 271 nan nan 277 nan 281 284 283 281 281 283 282 274 282 304 nan nan nan nan
310 307 304 305 nan nan nan nan nan nan nan nan 272 nan nan nan nan nan nan 278 270 275 274 273 280 280 280 nan nan nan nan nan
313 305 306 305 295 nan nan nan nan nan nan 282 274 269 269 nan nan 270 nan nan nan nan nan nan nan nan nan nan nan nan nan nan
312 306 304 305 305 297 296 292 291 291 285 290 284 279 279 275 275 nan 274 277 278 nan nan nan nan nan nan nan nan nan 287 nan
266 301 304 302 299 303 295 290 288 288 292 292 297 287 279 282 280 280 279 276 278 279 nan nan nan nan nan nan nan nan nan nan
262 258 297 298 296 289 286 278 285 283 284 289 294 293 291 284 279 281 284 281 278 nan 282 nan nan 279 282 282 nan nan nan 284
254 257 253 281 290 283 277 281 279 278 284 285 288 294 292 288 283 283 282 278 279 277 277 277 280 278 278 282 nan 288 288 286
254 254 253 255 256 273 280 279 279 283 277 283 290 289 293 289 290 288 283 281 283 285 282 283 283 282 286 286 284 279 278 277
251 250 250 250 258 257 267 271 272 272 275 280 285 282 289 286 285 292 290 288 290 292 295 291 291 288 281 296 321 310 290 268
256 255 249 248 247 251 257 257 266 271 276 282 281 279 283 287 285 286 290 293 291 291 285 291 285 288 285 297 277 287 306 299
nan 252 253 252 251 248 248 256 257 256 266 277 280 279 280 280 287 288 292 290 293 291 290 290 281 297 296 282 304 302 306 316
nan nan 256 256 249 253 251 249 252 258 258 267 272 278 279 282 281 281 283 283 285 290 289 294 292 284 296 291 294 nan 292 293
nan nan nan 260 nan nan 250 253 250 251 259 257 262 272 276 280 282 278 279 281 279 279 280 282 281 286 281 298 291 286 288 285
nan nan nan nan nan nan nan 251 255 252 249 254 258 266 269 270 279 278 281 277 275 275 276 281 279 283 287 283 285 286 287 289
nan nan nan nan nan nan nan nan 250 251 251 251 248 255 258 259 264 268 272 277 271 270 276 279 277 279 282 283 283 280 285 283
nan nan nan nan nan nan nan nan 256 255 252 257 255 252 250 250 245 261 263 268 267 270 273 273 275 275 272 273 273 273 271 277
nan nan nan nan nan nan nan nan 267 263 255 256 258 261 255 249 244 241 245 251 264 262 264 267 270 269 271 272 273 274 nan nan